Regional Weather Roundup
Issued by NWS Charleston, WV

Home | Current Version | Previous Version | Graphics & Text | Print | Product List | Glossary On
Versions: 1 2 3 4 5 6 7 8 9 10 11 12 13 14 15 16 17 18 19 20 21 22 23 24 25 26 27 28 29 30 31 32 33 34 35 36 37 38 39 40 41 42 43 44 45 46 47 48 49 50
747
ASUS41 KRLX 280710
RWRRLX
West Virginia Regional Weather Roundup
National Weather Service Charleston WV
300 AM EDT SUN AUG 28 2016

Note: "fair" indicates few or no clouds below 12,000 feet with no
significant weather and/or obstructions to visibility.

WVZ003-280800-
Northern Panhandle of West Virginia

CITY           SKY/WX    TMP DP  RH WIND       PRES   REMARKS
WHEELING       PTCLDY    75  70  84 S5        30.17S
$$

WVZ009-280800-
Northwest West Virginia

CITY           SKY/WX    TMP DP  RH WIND       PRES   REMARKS
PARKERSBURG    CLEAR     72  70  93 CALM      30.16F
$$

WVZ006-280800-
Western West Virginia

CITY           SKY/WX    TMP DP  RH WIND       PRES   REMARKS
HUNTINGTON     MOCLDY    74  71  91 CALM      30.12F
$$

WVZ015-280800-
West Central West Virginia

CITY           SKY/WX    TMP DP  RH WIND       PRES   REMARKS
CHARLESTON     MOCLDY    74  72  93 CALM      30.14F
$$

WVZ022-031-280800-
North Central West Virginia

CITY           SKY/WX    TMP DP  RH WIND       PRES   REMARKS
CLARKSBURG     PTCLDY    68  67  96 CALM      30.17F
MORGANTOWN     PTCLDY    73  70  90 CALM      30.18S
$$

WVZ025-035-042-045-280800-
Southern West Virginia

CITY           SKY/WX    TMP DP  RH WIND       PRES   REMARKS
BECKLEY        CLOUDY    74  68  81 SE9       30.25F
LOGAN            N/A     79  70  73 CALM      30.17S
BLUEFIELD      CLOUDY    72  65  78 VRB7      30.29S
LEWISBURG      CLEAR     66  63  90 CALM      30.27F
$$

WVZ047-280800-
Northern Mountains of West Virginia

CITY           SKY/WX    TMP DP  RH WIND       PRES   REMARKS
ELKINS         FOG       66  64  93 CALM      30.24S VSB 1
$$

WVZ052-280800-
Eastern Panhandle of West Virginia

CITY           SKY/WX    TMP DP  RH WIND       PRES   REMARKS
MARTINSBURG    CLEAR     67  65  93 CALM      30.19S
PETERSBURG     CLEAR     69  69  98 CALM      30.20R FOG
$$




USA.gov is the U.S. government's official web portal to all federal, state and local government web resources and services.